When you browse on this site, cookies collect data to enhance your experience and personalize the content and advertising you see.
Visit our Privacy Policy to learn more. By continuing to use the site, you agree to this use of cookies and data.
  • In Austria
  • List of Countries
  • For 7 days
  • Water Temperature
  • Satellite Maps
  • Weather Map
  • News
  • Weather Widgets
  • user-avatar
    Login

    Hourly Weather Lyahovichi

    Today, 23 July, Tuesday

    Time Temperature Precipitation Wind Pressure Humidity
    00:00 +16°C° 0 mm 3 mps 750 mmHg 96%
    01:00 +14°C° 0 mm 3 mps 749 mmHg 96%
    02:00 +14°C° 0 mm 3 mps 749 mmHg 97%
    03:00 +13°C° 0 mm 3 mps 749 mmHg 97%
    04:00 +13°C° 0 mm 3 mps 749 mmHg 97%
    05:00 +13°C° 0 mm 3 mps 749 mmHg 97%
    06:00 +13°C° 0 mm 4 mps 749 mmHg 95%
    07:00 +14°C° 0 mm 4 mps 749 mmHg 93%
    08:00 +14°C° 0 mm 4 mps 749 mmHg 91%
    09:00 +15°C° 0 mm 4 mps 749 mmHg 89%
    10:00 +15°C° 0 mm 4 mps 749 mmHg 87%
    11:00 +17°C° 0 mm 4 mps 749 mmHg 84%
    12:00 +17°C° 0.2 mm 4 mps 748 mmHg 86%
    13:00 +17°C° 0.2 mm 4 mps 748 mmHg 87%
    14:00 +16°C° 0.2 mm 5 mps 748 mmHg 88%
    15:00 +17°C° 0.1 mm 4 mps 748 mmHg 88%
    16:00 +18°C° 0.1 mm 3 mps 748 mmHg 88%
    17:00 +18°C° 0.1 mm 3 mps 748 mmHg 88%
    18:00 +18°C° 0 mm 3 mps 748 mmHg 89%
    19:00 +17°C° 0 mm 3 mps 748 mmHg 89%
    20:00 +17°C° 0 mm 3 mps 747 mmHg 90%
    21:00 +17°C° 0 mm 3 mps 747 mmHg 91%
    22:00 +17°C° 0 mm 3 mps 748 mmHg 91%
    23:00 +16°C° 0 mm 3 mps 748 mmHg 92%

    Tomorrow, 24 July, Wednesday

    Time Temperature Precipitation Wind Pressure Humidity
    00:00 +16°C° 0 mm 3 mps 747 mmHg 93%
    01:00 +16°C° 0 mm 3 mps 747 mmHg 94%
    02:00 +14°C° 0 mm 3 mps 747 mmHg 94%
    03:00 +14°C° 0 mm 3 mps 747 mmHg 95%
    04:00 +14°C° 0 mm 3 mps 747 mmHg 95%
    05:00 +14°C° 0 mm 3 mps 747 mmHg 95%
    06:00 +15°C° 0 mm 4 mps 747 mmHg 89%
    07:00 +18°C° 0 mm 4 mps 748 mmHg 82%
    08:00 +19°C° 0 mm 4 mps 748 mmHg 76%
    09:00 +21°C° 0 mm 4 mps 748 mmHg 72%
    10:00 +22°C° 0 mm 4 mps 748 mmHg 67%
    11:00 +23°C° 0 mm 5 mps 748 mmHg 62%
    12:00 +25°C° 0.1 mm 5 mps 748 mmHg 60%
    13:00 +25°C° 0.1 mm 5 mps 748 mmHg 57%
    14:00 +26°C° 0.1 mm 5 mps 748 mmHg 54%
    15:00 +26°C° 0.1 mm 5 mps 748 mmHg 56%
    16:00 +25°C° 0.1 mm 4 mps 748 mmHg 58%
    17:00 +25°C° 0.1 mm 4 mps 748 mmHg 60%
    18:00 +22°C° 0 mm 4 mps 748 mmHg 67%
    19:00 +20°C° 0 mm 3 mps 748 mmHg 74%
    20:00 +19°C° 0 mm 3 mps 748 mmHg 81%
    21:00 +18°C° 0 mm 3 mps 749 mmHg 83%
    22:00 +17°C° 0 mm 3 mps 749 mmHg 85%
    23:00 +16°C° 0 mm 3 mps 749 mmHg 88%

    Day after tomorrow, 25 July, Thursday

    Time Temperature Precipitation Wind Pressure Humidity
    00:00 +16°C° 0 mm 3 mps 749 mmHg 87%
    01:00 +15°C° 0 mm 2 mps 749 mmHg 87%
    02:00 +15°C° 0 mm 2 mps 749 mmHg 86%
    03:00 +15°C° 0 mm 2 mps 750 mmHg 87%
    04:00 +14°C° 0 mm 2 mps 750 mmHg 87%
    05:00 +14°C° 0 mm 2 mps 750 mmHg 87%
    06:00 +16°C° 0 mm 3 mps 750 mmHg 81%
    07:00 +18°C° 0 mm 3 mps 750 mmHg 75%
    08:00 +20°C° 0 mm 4 mps 750 mmHg 68%
    09:00 +21°C° 0.2 mm 4 mps 749 mmHg 68%
    10:00 +22°C° 0.2 mm 4 mps 749 mmHg 67%
    11:00 +23°C° 0.2 mm 5 mps 749 mmHg 66%
    12:00 +23°C° 0.4 mm 5 mps 749 mmHg 66%
    13:00 +23°C° 0.4 mm 5 mps 749 mmHg 65%
    14:00 +25°C° 0.4 mm 5 mps 748 mmHg 65%
    15:00 +23°C° 0.9 mm 5 mps 748 mmHg 71%
    16:00 +22°C° 0.9 mm 4 mps 748 mmHg 78%
    17:00 +21°C° 0.9 mm 4 mps 748 mmHg 84%
    18:00 +20°C° 0.2 mm 3 mps 748 mmHg 87%
    19:00 +19°C° 0.2 mm 3 mps 748 mmHg 89%
    20:00 +18°C° 0.2 mm 3 mps 747 mmHg 92%
    21:00 +17°C° 0 mm 2 mps 747 mmHg 93%
    22:00 +16°C° 0 mm 2 mps 747 mmHg 94%
    23:00 +15°C° 0 mm 2 mps 747 mmHg 95%

    26 July, Friday

    Time Temperature Precipitation Wind Pressure Humidity
    00:00 +15°C° 0 mm 2 mps 747 mmHg 96%
    01:00 +15°C° 0 mm 2 mps 747 mmHg 96%
    02:00 +14°C° 0 mm 2 mps 747 mmHg 97%
    03:00 +14°C° 0 mm 2 mps 747 mmHg 97%
    04:00 +14°C° 0 mm 2 mps 747 mmHg 98%
    05:00 +14°C° 0 mm 2 mps 747 mmHg 98%
    06:00 +15°C° 0 mm 2 mps 747 mmHg 96%
    07:00 +16°C° 0 mm 2 mps 747 mmHg 95%
    08:00 +17°C° 0 mm 2 mps 747 mmHg 93%
    09:00 +17°C° 0 mm 2 mps 747 mmHg 92%
    10:00 +17°C° 0 mm 2 mps 747 mmHg 90%
    11:00 +18°C° 0 mm 2 mps 747 mmHg 89%
    12:00 +19°C° 0.2 mm 2 mps 747 mmHg 83%
    13:00 +21°C° 0.2 mm 2 mps 747 mmHg 77%
    14:00 +23°C° 0.2 mm 2 mps 746 mmHg 71%
    15:00 +22°C° 0.5 mm 3 mps 746 mmHg 73%
    16:00 +22°C° 0.5 mm 3 mps 746 mmHg 76%
    17:00 +22°C° 0.5 mm 3 mps 746 mmHg 79%
    18:00 +20°C° 0.3 mm 3 mps 746 mmHg 84%
    19:00 +19°C° 0.3 mm 3 mps 746 mmHg 89%
    20:00 +18°C° 0.3 mm 2 mps 746 mmHg 93%
    21:00 +17°C° 0 mm 2 mps 747 mmHg 94%
    22:00 +17°C° 0 mm 2 mps 747 mmHg 95%
    23:00 +16°C° 0 mm 2 mps 747 mmHg 96%

    27 July, Saturday

    Time Temperature Precipitation Wind Pressure Humidity
    00:00 +16°C° 0 mm 2 mps 747 mmHg 97%
    01:00 +16°C° 0 mm 2 mps 747 mmHg 97%
    02:00 +16°C° 0 mm 3 mps 747 mmHg 97%
    03:00 +16°C° 0 mm 2 mps 747 mmHg 98%
    04:00 +16°C° 0 mm 2 mps 747 mmHg 98%
    05:00 +16°C° 0 mm 2 mps 747 mmHg 98%
    06:00 +17°C° 0 mm 3 mps 748 mmHg 96%
    07:00 +18°C° 0 mm 3 mps 748 mmHg 95%
    08:00 +18°C° 0 mm 4 mps 748 mmHg 93%
    09:00 +18°C° 0.2 mm 3 mps 748 mmHg 92%
    10:00 +18°C° 0.2 mm 3 mps 748 mmHg 92%
    11:00 +18°C° 0.2 mm 3 mps 748 mmHg 91%
    12:00 +19°C° 0.2 mm 2 mps 748 mmHg 88%
    13:00 +20°C° 0.2 mm 2 mps 748 mmHg 85%
    14:00 +21°C° 0.2 mm 2 mps 747 mmHg 81%
    15:00 +23°C° 0.1 mm 2 mps 747 mmHg 80%
    16:00 +24°C° 0.1 mm 2 mps 747 mmHg 78%
    17:00 +25°C° 0.1 mm 1 mps 747 mmHg 76%
    18:00 +24°C° 0.4 mm 2 mps 747 mmHg 81%
    19:00 +23°C° 0.4 mm 2 mps 747 mmHg 86%
    20:00 +21°C° 0.4 mm 3 mps 747 mmHg 90%
    21:00 +20°C° 0 mm 3 mps 747 mmHg 92%
    22:00 +19°C° 0 mm 3 mps 747 mmHg 94%
    23:00 +19°C° 0 mm 3 mps 747 mmHg 95%

    28 July, Sunday

    Time Temperature Precipitation Wind Pressure Humidity
    00:00 +19°C° 0 mm 2 mps 747 mmHg 96%
    01:00 +18°C° 0 mm 2 mps 747 mmHg 96%
    02:00 +18°C° 0 mm 2 mps 747 mmHg 97%
    03:00 +18°C° 0 mm 2 mps 747 mmHg 97%
    04:00 +17°C° 0 mm 2 mps 747 mmHg 97%
    05:00 +17°C° 0 mm 2 mps 747 mmHg 97%
    06:00 +19°C° 0 mm 2 mps 747 mmHg 93%
    07:00 +20°C° 0 mm 2 mps 747 mmHg 89%
    08:00 +23°C° 0 mm 2 mps 747 mmHg 85%
    09:00 +24°C° 0 mm 3 mps 747 mmHg 77%
    10:00 +26°C° 0 mm 3 mps 747 mmHg 69%
    11:00 +28°C° 0 mm 3 mps 747 mmHg 61%
    12:00 +28°C° 0 mm 3 mps 747 mmHg 59%
    13:00 +29°C° 0 mm 3 mps 747 mmHg 56%
    14:00 +29°C° 0 mm 3 mps 746 mmHg 53%
    15:00 +29°C° 0 mm 3 mps 746 mmHg 55%
    16:00 +29°C° 0 mm 2 mps 746 mmHg 56%
    17:00 +29°C° 0 mm 2 mps 746 mmHg 57%
    18:00 +27°C° 0 mm 2 mps 746 mmHg 65%
    19:00 +25°C° 0 mm 2 mps 746 mmHg 73%
    20:00 +23°C° 0 mm 2 mps 746 mmHg 80%
    21:00 +21°C° 0 mm 2 mps 746 mmHg 84%
    22:00 +21°C° 0 mm 2 mps 746 mmHg 88%
    23:00 +20°C° 0 mm 2 mps 746 mmHg 91%
    Show more